Station RPLV2 - 8632837 - Rappahannock Light, VA Image indicating link to RSS feed of recent meteorological observations for station RPLV2


Conditions at RPLV2 as of
(2:54 pm EDT)
1854 GMT on 06/14/2024:
     

Click on the graph icon in the table below to see a time series plot of the last five days of that observation.

5-day plot - Wind Direction Wind Direction (WDIR): S ( 190 deg true )
5-day plot - Wind Speed Wind Speed (WSPD): 8.0 kts
5-day plot - Wind Gust Wind Gust (GST): 8.9 kts
5-day plot - Atmospheric Pressure Atmospheric Pressure (PRES):29.92 in
5-day plot - Wind Speed at 10 Meters Wind Speed at 10 meters (WSPD10M): 7.8 kts
5-day plot - Wind Speed at 20 Meters Wind Speed at 20 meters (WSPD20M): 7.8 kts
5-day plot -  Wind Speed, Wind Gust and Atmospheric Pressure Combined plot of Wind Speed, Gust, and Air Pressure
NOS Water Level Observation Network Water Level
Previous observations
TIME
(EDT)
5-day plot - Wind Direction
WDIR
 
5-day plot - Wind Speed
WSPD
kts
5-day plot - Wind Gust
GST
kts
5-day plot - Wave Height
WVHT
ft
5-day plot - Dominant Wave Period
DPD
sec
5-day plot - Average Wave Period
APD
sec
5-day plot - Mean Wave Direction
MWD
 
5-day plot - Atmospheric Pressure
PRES
in
5-day plot - Pressure Tendency
PTDY
in
5-day plot - Air Temperature
ATMP
°F
5-day plot - Water Temperature
WTMP
°F
5-day plot - Dew Point
DEWP
°F
5-day plot - Salinity
SAL
psu
5-day plot - Visibility
VIS
nmi
5-day plot - Tide (above MLLW)
TIDE
ft
2024-06-14 02:48 pmSSW 8.0 9.9----29.92-------
2024-06-14 02:42 pm S 8.9 9.9----29.92-------
2024-06-14 02:36 pmSSW 9.9 9.9----29.92-------
2024-06-14 02:30 pmSSW 8.9 11.1----29.93-------
2024-06-14 02:24 pmSSW 9.9 11.1----29.93-------
2024-06-14 02:18 pmSSW 8.9 11.1----29.93-------
2024-06-14 02:12 pmSSW 9.9 11.1----29.93-------
2024-06-14 02:06 pmSSW 8.9 11.1----29.93-------
2024-06-14 02:00 pm S 8.9 11.1----29.93-------
2024-06-14 01:54 pm S 9.9 11.1----29.93-------
2024-06-14 01:48 pm S 9.9 11.1----29.94-------
2024-06-14 01:42 pm S 9.9 11.1----29.94-------
2024-06-14 01:36 pm S 9.9 12.0----29.94-------
2024-06-14 01:30 pm S 8.9 11.1----29.95-------
2024-06-14 01:24 pm S 9.9 11.1----29.95-------
2024-06-14 01:18 pm S 8.9 11.1----29.95-------
2024-06-14 01:12 pm S 9.9 11.1----29.96-------
2024-06-14 01:06 pm S 9.9 11.1----29.96-------
2024-06-14 01:00 pm S 8.9 9.9----29.96-0.03------
2024-06-14 12:54 pm S 8.9 9.9----29.96-------
2024-06-14 12:48 pm S 8.9 9.9----29.96-------
2024-06-14 12:42 pm S 8.9 9.9----29.96-------
2024-06-14 12:36 pm S 9.9 11.1----29.97-------
2024-06-14 12:30 pm-------29.97-------
2024-06-14 12:24 pm-------29.97-------
2024-06-14 12:18 pm S 9.9 11.1----29.97-------
2024-06-14 12:12 pm S 9.9 12.0----29.98-------
2024-06-14 12:06 pm S 11.1 12.0----29.97-------
2024-06-14 12:00 pm S 9.9 12.0----29.98-0.04------
2024-06-14 11:54 am S 11.1 12.0----29.98-------
2024-06-14 11:48 am S 11.1 12.0----29.98-------
2024-06-14 11:42 am S 12.0 13.0----29.99-------
2024-06-14 11:36 am S 11.1 13.0----29.98-------
2024-06-14 11:30 am S 12.0 13.0----29.99-------
2024-06-14 11:24 am S 11.1 12.0----29.99-------
2024-06-14 11:18 am S 11.1 12.0----29.99-------
2024-06-14 11:12 am S 11.1 13.0----29.99-------
2024-06-14 11:06 am S 11.1 13.0----29.99-------
2024-06-14 11:00 am S 12.0 13.0------------
2024-06-14 10:54 am S 12.0 13.0------------
2024-06-14 10:48 am S 12.0 13.0----29.99-------
2024-06-14 10:42 am S 12.0 14.0----29.99-------
2024-06-14 10:36 am S 12.0 14.0----29.99-------
2024-06-14 10:30 am-------29.99-------
2024-06-14 10:24 am-------30.00-------
2024-06-14 10:18 am S 13.0 14.0----30.00-------
2024-06-14 10:12 am S 12.0 14.0----30.00-------
2024-06-14 10:06 am S 13.0 15.0----30.00-------
2024-06-14 10:00 am S 14.0 14.0----30.00+0.00------
2024-06-14 09:54 am S 13.0 14.0----30.00-------
2024-06-14 09:48 am S 12.0 13.0----30.00-------
2024-06-14 09:42 am S 13.0 13.0----30.01-------
2024-06-14 09:36 am S 12.0 13.0----30.01-------
2024-06-14 09:30 am S 12.0 13.0----30.01-------
2024-06-14 09:24 am S 12.0 13.0----30.01-------
2024-06-14 09:18 amSSW 13.0 14.0----30.01-------
2024-06-14 09:12 amSSW 11.1 13.0----30.01-------
2024-06-14 09:06 am S 11.1 13.0----30.01-------
2024-06-14 09:00 am S 11.1 13.0----30.01+0.02------
2024-06-14 08:54 am S 12.0 13.0----30.01-------
2024-06-14 08:48 am S 12.0 13.0----30.01-------
2024-06-14 08:42 am S 12.0 13.0----30.01-------
2024-06-14 08:36 am S 12.0 14.0----30.01-------
2024-06-14 08:30 am S 12.0 15.0----30.00-------
2024-06-14 08:24 am S 13.0 15.0----30.00-------
2024-06-14 08:18 am S 14.0 15.9----30.00-------
2024-06-14 08:12 am S 14.0 15.0----30.00-------
2024-06-14 08:06 am S 14.0 15.9----30.00-------
2024-06-14 08:00 am S 12.0 15.0----30.00+0.00------
2024-06-14 07:54 am S 13.0 15.9----30.00-------
2024-06-14 07:48 am S 14.0 15.9----30.00-------
2024-06-14 07:42 am S 15.0 17.1----30.00-------
2024-06-14 07:36 am S 15.0 17.1----30.00-------
2024-06-14 07:30 am S 15.0 17.1----30.00-------
2024-06-14 07:24 am S 15.0 17.1----30.00-------
2024-06-14 07:18 am S 15.0 15.9----30.00-------
2024-06-14 07:12 am S 14.0 15.0----29.99-------
2024-06-14 07:06 am S 13.0 14.0----29.99-------
2024-06-14 07:00 am S 12.0 14.0----29.99+0.00------
2024-06-14 06:54 am S 13.0 14.0----29.99-------
2024-06-14 06:48 am S 13.0 15.0----29.99-------
2024-06-14 06:42 am S 13.0 15.0----29.99-------
2024-06-14 06:36 am S 14.0 15.0----29.99-------
2024-06-14 06:30 am S 13.0 14.0----29.99-------
2024-06-14 06:24 am S 13.0 14.0----30.00-------
2024-06-14 06:18 am S 13.0 14.0----29.99-------
2024-06-14 06:12 am S 13.0 15.0----30.00-------
2024-06-14 06:06 am S 13.0 14.0----29.99-------
2024-06-14 06:00 am-------29.99+0.00------
2024-06-14 05:54 am-------29.99-------
2024-06-14 05:48 am S 15.0 15.0----30.00-------
2024-06-14 05:42 am S 13.0 15.0----29.99-------
2024-06-14 05:36 am S 14.0 15.0----30.00-------
2024-06-14 05:30 am S 12.0 14.0----30.00-------
2024-06-14 05:24 am S 13.0 14.0----30.00-------
2024-06-14 05:18 am S 12.0 15.0----30.00-------
2024-06-14 05:12 am S 12.0 14.0----30.00-------
2024-06-14 05:06 am S 13.0 15.0----30.00-------
2024-06-14 05:00 am S 14.0 15.0----30.00-0.01------
2024-06-14 04:54 am S 14.0 15.9----30.00-------
2024-06-14 04:48 am S 12.0 14.0----30.00-------
2024-06-14 04:42 am S 12.0 13.0----30.00-------
2024-06-14 04:36 am S 12.0 14.0----29.99-------
2024-06-14 04:30 am S 12.0 14.0----29.99-------
2024-06-14 04:24 am S 13.0 15.0----29.99-------
2024-06-14 04:18 am S 13.0 15.0----29.99-------
2024-06-14 04:12 am S 13.0 14.0----29.99-------
2024-06-14 04:06 am S 12.0 14.0----29.99-------
2024-06-14 04:00 am S 12.0 13.0----29.99-0.03------
2024-06-14 03:54 am S 12.0 13.0----29.99-------
2024-06-14 03:48 am S 12.0 14.0----29.99-------
2024-06-14 03:42 am S 13.0 14.0----29.99-------
2024-06-14 03:36 am S 11.1 12.0----30.00-------
2024-06-14 03:30 am S 11.1 13.0----30.00-------
2024-06-14 03:24 am S 12.0 14.0----30.00-------
2024-06-14 03:18 am S 12.0 14.0----30.00-------
2024-06-14 03:12 am S 13.0 14.0----30.00-------
2024-06-14 03:06 am S 14.0 15.0----30.00-------
2024-06-14 03:00 am S 14.0 15.0----30.00-0.04------
2024-06-14 02:54 am S 12.0 14.0----30.00-------
2024-06-14 02:48 amSSE 13.0 15.0----30.00-------
2024-06-14 02:42 amSSE 13.0 14.0----30.01-------
2024-06-14 02:36 amSSE 13.0 14.0----30.01-------
2024-06-14 02:30 amSSE 12.0 14.0----30.01-------
2024-06-14 02:24 amSSE 13.0 15.0----30.01-------
2024-06-14 02:18 amSSE 14.0 15.0----30.01-------
2024-06-14 02:12 amSSE 13.0 15.9----30.01-------
2024-06-14 02:06 amSSE 14.0 15.0----30.01-------
2024-06-14 02:00 am S 14.0 15.0----30.01-0.03------
2024-06-14 01:54 am S 14.0 15.0----30.01-------
2024-06-14 01:48 am S 13.0 15.0----30.01-------
2024-06-14 01:42 am S 13.0 15.9----30.01-------
2024-06-14 01:36 am S 14.0 15.9----30.01-------
2024-06-14 01:30 am S 14.0 17.1----30.01-------
2024-06-14 01:24 am S 14.0 15.9----30.01-------
2024-06-14 01:18 am S 14.0 15.9----30.02-------
2024-06-14 01:12 am S 15.0 15.9----30.02-------
2024-06-14 01:06 am S 13.0 15.9----30.02-------
2024-06-14 01:00 am S 15.0 15.9----30.02-0.01------
2024-06-14 12:54 am S 14.0 15.0----30.03-------
2024-06-14 12:48 amSSE 14.0 15.9----30.03-------
2024-06-14 12:42 amSSE 15.0 15.9----30.03-------
2024-06-14 12:36 amSSE 14.0 15.0----30.03-------
2024-06-14 12:30 amSSE 14.0 15.0----30.03-------
2024-06-14 12:24 amSSE 14.0 15.0----30.03-------
2024-06-14 12:18 am S 14.0 15.9----30.03-------
2024-06-14 12:12 am S 14.0 15.9----30.03-------
2024-06-14 12:06 am S 14.0 17.1----30.03-------
2024-06-14 12:00 am S 15.0 17.1----30.03+0.00------
2024-06-13 11:54 pmSSE 15.0 17.1----30.03-------
2024-06-13 11:48 pmSSE 15.0 17.1----30.03-------
2024-06-13 11:42 pmSSE 14.0 17.1----30.03-------
2024-06-13 11:36 pmSSE 15.0 17.1----30.03-------
2024-06-13 11:30 pmSSE 15.0 17.1----30.03-------
2024-06-13 11:24 pmSSE 14.0 17.1----30.03-------
2024-06-13 11:18 pmSSE 15.0 17.1----30.04-------
2024-06-13 11:12 pmSSE 15.9 18.1----30.04-------
2024-06-13 11:06 pm S 17.1 19.0----30.04-------
2024-06-13 11:00 pm S 17.1 18.1----30.04+0.00------
2024-06-13 10:54 pmSSE 15.9 17.1----30.04-------
2024-06-13 10:48 pm S 15.0 18.1----30.04-------
2024-06-13 10:42 pm S 15.9 17.1----30.04-------
2024-06-13 10:36 pmSSE 15.0 17.1----30.04-------
2024-06-13 10:30 pmSSE 14.0 19.0----30.03-------
2024-06-13 10:24 pmSSE 17.1 18.1----30.03-------
2024-06-13 10:18 pmSSE 15.0 18.1----30.03-------
2024-06-13 10:12 pmSSE 17.1 18.1----30.04-------
2024-06-13 10:06 pmSSE 17.1 18.1----30.04-------
2024-06-13 10:00 pmSSE 14.0 17.1----30.04+0.00------
2024-06-13 09:54 pmSSE 15.9 17.1----30.04-------
2024-06-13 09:48 pmSSE 15.0 17.1----30.04-------
2024-06-13 09:42 pmSSE 15.0 17.1----30.04-------
2024-06-13 09:36 pmSSE 15.0 15.9----30.03-------
2024-06-13 09:30 pmSSE 15.0 15.9----30.03-------
2024-06-13 09:24 pmSSE 14.0 15.9----30.03-------
2024-06-13 09:18 pmSSE 14.0 17.1----30.03-------
2024-06-13 09:12 pmSSE 15.0 17.1----30.03-------
2024-06-13 09:06 pmSSE 15.0 18.1----30.03-------
2024-06-13 09:00 pmSSE 15.9 17.1----30.03+0.00------
2024-06-13 08:54 pmSSE 15.9 18.1----30.03-------
2024-06-13 08:48 pmSSE 15.9 17.1----30.03-------
2024-06-13 08:42 pmSSE 17.1 19.0----30.03-------
2024-06-13 08:36 pmSSE 17.1 19.0----30.03-------
2024-06-13 08:30 pmSSE 15.9 19.0----30.03-------
2024-06-13 08:24 pmSSE 14.0 18.1----30.03-------
2024-06-13 08:18 pmSSE 15.9 17.1----30.03-------
2024-06-13 08:12 pmSSE 15.9 18.1----30.03-------
2024-06-13 08:06 pmSSE 15.9 17.1----30.03-------
2024-06-13 08:00 pmSSE 15.0 18.1----30.03+0.00------
2024-06-13 07:54 pmSSE 15.0 17.1----30.03-------
2024-06-13 07:48 pmSSE 14.0 17.1----30.03-------
2024-06-13 07:42 pmSSE 15.9 18.1----30.03-------
2024-06-13 07:36 pm SE 15.9 18.1----30.03-------
2024-06-13 07:30 pm SE 14.0 15.9----30.03-------
2024-06-13 07:24 pm SE 14.0 17.1----30.03-------
2024-06-13 07:00 pm SE 15.0 17.1----30.03-0.01------
2024-06-13 06:54 pm SE 15.9 18.1----30.03-------
2024-06-13 06:48 pmSSE 15.0 17.1----30.03-------
2024-06-13 06:42 pm SE 15.0 15.9----30.03-------
2024-06-13 06:36 pm SE 15.0 17.1----30.03-------
2024-06-13 06:30 pmSSE 15.0 18.1----30.03-------
2024-06-13 06:24 pmSSE 15.9 18.1----30.03-------
2024-06-13 06:18 pm SE 15.0 17.1----30.03-------
2024-06-13 06:12 pmSSE 17.1 18.1----30.04-------
2024-06-13 06:06 pm SE 15.9 18.1----30.03-------
2024-06-13 06:00 pm SE 15.9 18.1----30.03-0.03------
2024-06-13 05:54 pmSSE 15.9 18.1----30.03-------
2024-06-13 05:48 pmSSE 15.9 19.0----30.03-------
2024-06-13 05:42 pm SE 15.9 18.1----30.03-------
2024-06-13 05:36 pm SE 15.9 18.1----30.03-------
2024-06-13 05:30 pm SE 14.0 17.1----30.03-------
2024-06-13 05:24 pm SE 15.0 17.1----30.04-------
2024-06-13 05:18 pm SE 15.9 17.1----30.04-------
2024-06-13 05:12 pm SE 15.0 19.0----30.04-------
2024-06-13 05:06 pmSSE 15.0 17.1----30.04-------
2024-06-13 05:00 pmSSE 15.9 18.1----30.04-0.04------
2024-06-13 04:54 pmSSE 15.9 18.1----30.04-------
2024-06-13 04:48 pmSSE 17.1 19.0----30.04-------
2024-06-13 04:42 pmSSE 15.9 18.1----30.04-------
2024-06-13 04:36 pmSSE 15.0 18.1----30.04-------
2024-06-13 04:30 pmSSE 15.0 17.1----30.04-------
2024-06-13 04:24 pm SE 17.1 19.0----30.04-------
2024-06-13 04:18 pm SE 15.0 18.1----30.05-------
2024-06-13 04:12 pm SE 15.0 18.1----30.05-------
2024-06-13 04:06 pm SE 15.0 18.1----30.05-------
2024-06-13 04:00 pm SE 15.9 18.1----30.05-0.03------
2024-06-13 03:54 pm SE 13.0 17.1----30.05-------
2024-06-13 03:48 pm SE 15.0 15.9----30.05-------
2024-06-13 03:42 pm SE 15.0 15.9----30.05-------
2024-06-13 03:36 pm SE 13.0 15.0----30.05-------
2024-06-13 03:30 pm SE 14.0 17.1----30.05-------
2024-06-13 03:24 pm SE 15.0 17.1----30.06-------
2024-06-13 03:18 pm SE 15.0 17.1----30.06-------
2024-06-13 03:12 pmSSE 13.0 15.0----30.06-------
2024-06-13 03:06 pmSSE 12.0 14.0----30.06-------
2024-06-13 03:00 pm S 11.1 12.0----30.06-------
2024-06-13 02:54 pm S 12.0 13.0----30.07-------